GEFSMA_prec_meanprecacc_006.txt.gz
Total_Precipitation_Accumulation
0.02 0.02 0.01 0.00 0.01 0.04 0.09 0.08 0.06 0.05 0.05 0.04 0.03 0.02 0.02 0.04 0.07 0.08 0.14 0.08 0.04 0.03 0.02 0.01 0.01 0.01 0.01 0.00 0.01 0.01 0.01 0.01 0.02 0.04 0.05 0.03 0.02 0.01 0.00 0.00 0.00 0.01 0.04
0.03 0.03 0.02 0.01 0.01 0.01 0.01 0.04 0.06 0.07 0.08 0.10 0.05 0.01 0.01 0.01 0.03 0.05 0.05 0.13 0.13 0.04 0.03 0.01 0.00 0.01 0.01 0.00 0.01 0.01 0.03 0.02 0.02 0.03 0.05 0.04 0.01 0.01 0.00 0.00 0.00 0.00 0.01
0.07 0.06 0.06 0.04 0.02 0.03 0.05 0.05 0.05 0.06 0.04 0.04 0.04 0.04 0.03 0.02 0.02 0.04 0.04 0.08 0.11 0.05 0.04 0.02 0.01 0.01 0.01 0.01 0.01 0.01 0.02 0.01 0.01 0.01 0.03 0.03 0.02 0.02 0.00 0.00 0.00 0.00 0.00
0.08 0.11 0.11 0.08 0.08 0.13 0.16 0.16 0.15 0.13 0.09 0.06 0.04 0.04 0.03 0.03 0.02 0.03 0.02 0.03 0.04 0.02 0.06 0.10 0.04 0.01 0.01 0.01 0.01 0.02 0.02 0.01 0.00 0.01 0.01 0.02 0.02 0.01 0.00 0.00 0.00 0.00 0.00
0.02 0.06 0.06 0.09 0.15 0.18 0.20 0.19 0.13 0.13 0.12 0.11 0.09 0.10 0.06 0.02 0.01 0.00 0.00 0.00 0.01 0.01 0.01 0.08 0.03 0.03 0.03 0.03 0.04 0.06 0.05 0.03 0.03 0.02 0.02 0.01 0.01 0.01 0.00 0.00 0.00 0.00 0.00
0.02 0.03 0.02 0.02 0.05 0.09 0.12 0.17 0.18 0.19 0.18 0.18 0.09 0.06 0.02 0.01 0.00 0.00 0.00 0.00 0.00 0.00 0.00 0.01 0.08 0.08 0.06 0.05 0.08 0.08 0.10 0.08 0.05 0.03 0.03 0.02 0.01 0.01 0.01 0.00 0.00 0.00 0.00
0.08 0.08 0.06 0.05 0.04 0.06 0.08 0.09 0.12 0.17 0.18 0.19 0.13 0.06 0.01 0.00 0.00 0.00 0.00 0.00 0.00 0.00 0.00 0.00 0.02 0.05 0.17 0.17 0.13 0.10 0.13 0.12 0.07 0.04 0.02 0.02 0.01 0.01 0.01 0.01 0.01 0.01 0.00
0.12 0.09 0.06 0.06 0.06 0.08 0.11 0.10 0.11 0.15 0.18 0.22 0.16 0.10 0.04 0.01 0.00 0.00 0.00 0.00 0.00 0.00 0.00 0.00 0.00 0.04 0.12 0.26 0.21 0.14 0.10 0.10 0.07 0.04 0.04 0.03 0.01 0.01 0.02 0.02 0.02 0.02 0.01
0.11 0.10 0.07 0.07 0.08 0.10 0.17 0.21 0.23 0.25 0.21 0.22 0.20 0.15 0.08 0.03 0.02 0.00 0.00 0.00 0.00 0.00 0.00 0.00 0.02 0.06 0.13 0.20 0.20 0.19 0.15 0.09 0.09 0.11 0.10 0.07 0.03 0.01 0.02 0.03 0.02 0.01 0.01
0.07 0.06 0.08 0.16 0.19 0.22 0.26 0.26 0.27 0.30 0.28 0.24 0.22 0.18 0.12 0.09 0.07 0.02 0.00 0.00 0.01 0.01 0.02 0.03 0.02 0.04 0.10 0.16 0.20 0.21 0.23 0.11 0.08 0.10 0.10 0.09 0.08 0.03 0.01 0.01 0.03 0.04 0.03
0.03 0.02 0.02 0.06 0.14 0.21 0.26 0.27 0.27 0.29 0.31 0.27 0.22 0.18 0.14 0.13 0.10 0.06 0.01 0.02 0.06 0.07 0.07 0.07 0.05 0.03 0.02 0.05 0.09 0.14 0.25 0.17 0.11 0.09 0.09 0.09 0.08 0.06 0.02 0.01 0.04 0.10 0.10
0.03 0.02 0.01 0.03 0.07 0.09 0.11 0.17 0.19 0.21 0.21 0.20 0.19 0.18 0.14 0.09 0.07 0.09 0.06 0.05 0.06 0.10 0.12 0.12 0.13 0.08 0.05 0.04 0.05 0.08 0.08 0.13 0.14 0.11 0.05 0.02 0.02 0.02 0.01 0.01 0.02 0.07 0.12
0.05 0.04 0.03 0.06 0.11 0.11 0.10 0.12 0.16 0.20 0.21 0.20 0.19 0.18 0.15 0.11 0.10 0.12 0.12 0.08 0.05 0.09 0.13 0.17 0.13 0.10 0.09 0.17 0.20 0.13 0.11 0.11 0.11 0.09 0.04 0.02 0.03 0.02 0.01 0.01 0.00 0.01 0.03
0.05 0.08 0.10 0.11 0.10 0.11 0.13 0.18 0.22 0.23 0.21 0.19 0.16 0.16 0.15 0.11 0.10 0.10 0.09 0.06 0.05 0.07 0.12 0.11 0.04 0.04 0.05 0.09 0.10 0.11 0.23 0.17 0.11 0.06 0.03 0.02 0.01 0.01 0.01 0.01 0.01 0.00 0.00
0.03 0.03 0.06 0.14 0.14 0.15 0.18 0.21 0.23 0.24 0.21 0.20 0.18 0.17 0.13 0.08 0.05 0.03 0.03 0.04 0.04 0.03 0.05 0.05 0.03 0.04 0.03 0.03 0.03 0.07 0.22 0.28 0.17 0.06 0.02 0.01 0.00 0.01 0.01 0.01 0.01 0.01 0.01
0.02 0.01 0.03 0.08 0.09 0.10 0.11 0.16 0.22 0.24 0.24 0.23 0.19 0.14 0.10 0.06 0.03 0.03 0.03 0.04 0.04 0.03 0.02 0.02 0.03 0.03 0.03 0.02 0.01 0.03 0.14 0.21 0.14 0.06 0.02 0.01 0.01 0.01 0.02 0.03 0.03 0.02 0.02
0.02 0.01 0.00 0.01 0.01 0.01 0.01 0.04 0.11 0.13 0.14 0.11 0.07 0.05 0.03 0.03 0.02 0.01 0.01 0.02 0.03 0.03 0.02 0.03 0.06 0.09 0.10 0.09 0.07 0.08 0.07 0.09 0.12 0.09 0.03 0.02 0.01 0.02 0.03 0.05 0.04 0.04 0.04
0.05 0.02 0.00 0.00 0.00 0.01 0.01 0.03 0.04 0.05 0.04 0.03 0.02 0.01 0.01 0.01 0.01 0.00 0.00 0.00 0.00 0.02 0.03 0.03 0.06 0.07 0.09 0.09 0.07 0.09 0.08 0.06 0.09 0.12 0.07 0.04 0.03 0.03 0.05 0.04 0.03 0.03 0.05
0.10 0.06 0.03 0.02 0.03 0.04 0.07 0.08 0.04 0.01 0.01 0.01 0.01 0.01 0.00 0.00 0.00 0.00 0.00 0.00 0.00 0.02 0.03 0.03 0.04 0.05 0.05 0.04 0.02 0.04 0.06 0.11 0.13 0.11 0.07 0.06 0.07 0.08 0.11 0.08 0.04 0.04 0.06
0.07 0.04 0.02 0.02 0.02 0.04 0.06 0.04 0.01 0.00 0.01 0.01 0.01 0.01 0.00 0.00 0.00 0.00 0.00 0.01 0.01 0.02 0.01 0.01 0.01 0.01 0.02 0.01 0.01 0.01 0.02 0.07 0.14 0.13 0.12 0.16 0.20 0.20 0.19 0.15 0.09 0.06 0.06
0.02 0.01 0.01 0.01 0.01 0.01 0.01 0.00 0.01 0.02 0.04 0.02 0.01 0.00 0.00 0.00 0.00 0.00 0.00 0.01 0.02 0.02 0.01 0.00 0.00 0.00 0.00 0.00 0.00 0.00 0.02 0.06 0.11 0.13 0.15 0.20 0.24 0.24 0.22 0.20 0.15 0.09 0.04
0.01 0.00 0.01 0.01 0.00 0.00 0.00 0.00 0.01 0.01 0.01 0.00 0.00 0.00 0.00 0.00 0.00 0.00 0.00 0.00 0.00 0.00 0.01 0.01 0.00 0.00 0.00 0.00 0.00 0.01 0.01 0.03 0.03 0.08 0.21 0.26 0.21 0.26 0.46 0.47 0.29 0.12 0.04
0.00 0.01 0.01 0.00 0.00 0.00 0.00 0.00 0.00 0.00 0.00 0.00 0.00 0.00 0.00 0.00 0.00 0.00 0.00 0.00 0.00 0.00 0.00 0.01 0.00 0.00 0.00 0.00 0.00 0.02 0.05 0.05 0.04 0.02 0.04 0.05 0.07 0.17 0.49 0.67 0.40 0.16 0.08
0.02 0.04 0.03 0.01 0.00 0.00 0.00 0.00 0.00 0.00 0.00 0.00 0.00 0.00 0.00 0.00 0.00 0.00 0.00 0.00 0.00 0.00 0.00 0.00 0.00 0.00 0.00 0.00 0.00 0.02 0.07 0.08 0.09 0.04 0.02 0.01 0.03 0.08 0.16 0.27 0.29 0.16 0.08
0.04 0.05 0.04 0.01 0.00 0.00 0.00 0.00 0.00 0.00 0.00 0.00 0.00 0.00 0.00 0.00 0.00 0.00 0.00 0.00 0.00 0.00 0.00 0.00 0.00 0.00 0.00 0.00 0.00 0.00 0.02 0.02 0.05 0.05 0.04 0.05 0.05 0.06 0.07 0.10 0.17 0.22 0.15
0.05 0.05 0.05 0.02 0.00 0.00 0.00 0.00 0.00 0.00 0.01 0.00 0.00 0.00 0.00 0.00 0.00 0.00 0.00 0.00 0.00 0.00 0.00 0.00 0.00 0.00 0.00 0.00 0.00 0.01 0.02 0.03 0.03 0.04 0.02 0.05 0.06 0.05 0.05 0.07 0.08 0.14 0.21

GEFSMA_prec_meanprecacc_012.txt.gz
Total_Precipitation_Accumulation
0.02 0.02 0.01 0.00 0.01 0.04 0.09 0.08 0.06 0.05 0.05 0.05 0.04 0.02 0.02 0.05 0.08 0.10 0.16 0.10 0.05 0.04 0.04 0.04 0.03 0.02 0.01 0.01 0.01 0.01 0.01 0.01 0.03 0.05 0.06 0.05 0.04 0.04 0.03 0.02 0.03 0.06 0.09
0.03 0.03 0.02 0.02 0.01 0.01 0.02 0.05 0.07 0.08 0.08 0.11 0.06 0.02 0.02 0.01 0.04 0.06 0.06 0.14 0.14 0.04 0.04 0.02 0.03 0.03 0.03 0.01 0.01 0.01 0.03 0.02 0.02 0.03 0.05 0.04 0.02 0.01 0.01 0.01 0.00 0.01 0.02
0.12 0.12 0.11 0.07 0.05 0.07 0.09 0.08 0.07 0.08 0.06 0.07 0.06 0.06 0.05 0.04 0.03 0.05 0.05 0.09 0.12 0.06 0.05 0.03 0.04 0.05 0.05 0.04 0.03 0.03 0.03 0.02 0.01 0.02 0.03 0.03 0.03 0.02 0.00 0.00 0.00 0.00 0.00
0.25 0.30 0.23 0.15 0.16 0.23 0.25 0.24 0.22 0.19 0.16 0.15 0.14 0.15 0.12 0.10 0.06 0.05 0.05 0.05 0.05 0.03 0.07 0.12 0.08 0.05 0.08 0.10 0.11 0.13 0.08 0.04 0.02 0.01 0.01 0.02 0.03 0.01 0.00 0.00 0.00 0.00 0.00
0.26 0.29 0.21 0.19 0.29 0.34 0.33 0.31 0.24 0.27 0.26 0.25 0.25 0.23 0.16 0.10 0.06 0.06 0.06 0.04 0.04 0.03 0.02 0.11 0.06 0.06 0.11 0.17 0.21 0.23 0.19 0.13 0.08 0.04 0.03 0.02 0.01 0.01 0.00 0.00 0.00 0.00 0.00
0.19 0.28 0.25 0.23 0.30 0.33 0.33 0.41 0.40 0.41 0.36 0.32 0.25 0.14 0.07 0.07 0.07 0.05 0.04 0.04 0.03 0.01 0.01 0.02 0.09 0.11 0.16 0.20 0.24 0.27 0.31 0.23 0.13 0.08 0.05 0.03 0.01 0.01 0.01 0.00 0.00 0.00 0.00
0.18 0.30 0.29 0.29 0.31 0.33 0.34 0.41 0.44 0.43 0.34 0.38 0.34 0.14 0.05 0.03 0.03 0.02 0.02 0.01 0.01 0.01 0.01 0.01 0.03 0.07 0.21 0.22 0.22 0.26 0.35 0.30 0.16 0.09 0.06 0.05 0.03 0.02 0.02 0.01 0.01 0.01 0.01
0.18 0.23 0.24 0.25 0.28 0.31 0.32 0.33 0.37 0.39 0.34 0.45 0.40 0.29 0.15 0.06 0.03 0.02 0.03 0.04 0.04 0.05 0.05 0.04 0.03 0.06 0.15 0.32 0.27 0.23 0.23 0.27 0.21 0.15 0.15 0.11 0.07 0.05 0.06 0.05 0.03 0.03 0.02
0.15 0.16 0.16 0.20 0.25 0.27 0.30 0.34 0.42 0.49 0.40 0.42 0.48 0.44 0.32 0.19 0.14 0.09 0.12 0.16 0.16 0.16 0.14 0.11 0.09 0.10 0.16 0.25 0.26 0.27 0.24 0.24 0.29 0.35 0.35 0.26 0.16 0.12 0.12 0.12 0.09 0.05 0.04
0.08 0.09 0.12 0.22 0.29 0.35 0.39 0.38 0.41 0.46 0.44 0.40 0.42 0.43 0.42 0.39 0.32 0.18 0.12 0.15 0.18 0.19 0.18 0.15 0.12 0.12 0.15 0.20 0.30 0.37 0.37 0.24 0.23 0.37 0.42 0.40 0.33 0.20 0.12 0.11 0.12 0.12 0.10
0.05 0.05 0.05 0.11 0.22 0.31 0.34 0.35 0.34 0.38 0.40 0.38 0.36 0.36 0.39 0.42 0.39 0.30 0.17 0.13 0.14 0.14 0.14 0.13 0.10 0.08 0.08 0.12 0.21 0.30 0.39 0.29 0.23 0.26 0.35 0.37 0.33 0.23 0.14 0.11 0.16 0.27 0.28
0.05 0.04 0.05 0.08 0.12 0.15 0.18 0.23 0.25 0.27 0.27 0.28 0.28 0.32 0.33 0.34 0.37 0.40 0.33 0.23 0.16 0.15 0.16 0.15 0.15 0.10 0.07 0.09 0.13 0.18 0.16 0.21 0.23 0.20 0.17 0.16 0.18 0.18 0.17 0.20 0.25 0.31 0.34
0.08 0.08 0.09 0.13 0.17 0.18 0.17 0.18 0.21 0.24 0.26 0.25 0.25 0.26 0.28 0.31 0.35 0.38 0.35 0.26 0.18 0.18 0.20 0.24 0.18 0.14 0.11 0.19 0.23 0.15 0.12 0.13 0.14 0.13 0.11 0.12 0.14 0.14 0.12 0.11 0.11 0.13 0.17
0.09 0.13 0.17 0.18 0.17 0.20 0.22 0.27 0.30 0.30 0.29 0.27 0.24 0.25 0.27 0.27 0.29 0.30 0.30 0.24 0.19 0.19 0.22 0.19 0.10 0.07 0.06 0.09 0.10 0.11 0.23 0.17 0.11 0.06 0.04 0.03 0.03 0.03 0.04 0.03 0.02 0.02 0.02
0.07 0.07 0.11 0.20 0.20 0.21 0.25 0.32 0.34 0.35 0.34 0.35 0.33 0.32 0.29 0.25 0.22 0.21 0.19 0.16 0.13 0.12 0.14 0.11 0.06 0.06 0.03 0.03 0.03 0.07 0.22 0.28 0.17 0.06 0.02 0.01 0.00 0.01 0.01 0.01 0.01 0.01 0.01
0.06 0.06 0.08 0.14 0.16 0.17 0.23 0.34 0.40 0.42 0.43 0.43 0.36 0.34 0.33 0.30 0.24 0.21 0.15 0.11 0.09 0.07 0.08 0.06 0.04 0.03 0.03 0.02 0.01 0.03 0.14 0.21 0.14 0.06 0.02 0.01 0.01 0.02 0.02 0.03 0.03 0.02 0.02
0.06 0.06 0.06 0.06 0.06 0.06 0.11 0.23 0.41 0.45 0.45 0.39 0.36 0.35 0.31 0.26 0.16 0.10 0.07 0.05 0.05 0.05 0.04 0.04 0.07 0.09 0.11 0.09 0.07 0.08 0.07 0.09 0.12 0.09 0.03 0.02 0.01 0.02 0.04 0.05 0.05 0.04 0.04
0.08 0.05 0.03 0.03 0.02 0.04 0.08 0.17 0.29 0.37 0.39 0.38 0.32 0.27 0.18 0.10 0.06 0.03 0.03 0.02 0.01 0.03 0.03 0.04 0.06 0.08 0.09 0.09 0.07 0.09 0.08 0.06 0.09 0.12 0.07 0.04 0.03 0.03 0.05 0.05 0.03 0.03 0.05
0.15 0.10 0.06 0.06 0.09 0.14 0.19 0.22 0.22 0.26 0.29 0.25 0.18 0.12 0.06 0.03 0.02 0.01 0.01 0.00 0.01 0.02 0.03 0.03 0.04 0.05 0.05 0.04 0.02 0.04 0.06 0.11 0.13 0.11 0.08 0.07 0.08 0.09 0.11 0.09 0.04 0.04 0.07
0.13 0.10 0.08 0.11 0.16 0.20 0.21 0.18 0.16 0.15 0.11 0.08 0.05 0.03 0.01 0.00 0.00 0.00 0.00 0.01 0.01 0.02 0.01 0.01 0.01 0.01 0.02 0.01 0.01 0.01 0.02 0.07 0.14 0.14 0.14 0.18 0.22 0.21 0.19 0.15 0.09 0.06 0.06
0.05 0.06 0.08 0.12 0.15 0.15 0.14 0.14 0.13 0.09 0.08 0.04 0.01 0.00 0.00 0.00 0.00 0.00 0.00 0.01 0.02 0.02 0.01 0.00 0.00 0.00 0.00 0.00 0.00 0.00 0.02 0.06 0.11 0.14 0.16 0.21 0.25 0.24 0.23 0.20 0.15 0.09 0.05
0.02 0.03 0.05 0.06 0.06 0.07 0.08 0.07 0.07 0.04 0.02 0.01 0.00 0.00 0.00 0.00 0.00 0.00 0.00 0.00 0.00 0.00 0.01 0.01 0.00 0.00 0.00 0.00 0.00 0.01 0.01 0.03 0.04 0.08 0.21 0.26 0.21 0.26 0.46 0.47 0.30 0.12 0.04
0.00 0.02 0.02 0.01 0.02 0.02 0.02 0.02 0.01 0.01 0.01 0.00 0.00 0.00 0.00 0.00 0.00 0.00 0.00 0.00 0.00 0.00 0.00 0.01 0.00 0.00 0.00 0.00 0.00 0.02 0.05 0.05 0.04 0.03 0.04 0.05 0.07 0.17 0.49 0.67 0.40 0.16 0.09
0.02 0.04 0.03 0.01 0.00 0.00 0.00 0.00 0.00 0.00 0.00 0.00 0.00 0.00 0.00 0.00 0.00 0.00 0.00 0.00 0.00 0.00 0.00 0.00 0.00 0.00 0.00 0.00 0.00 0.02 0.07 0.08 0.10 0.05 0.02 0.01 0.03 0.08 0.16 0.27 0.29 0.16 0.09
0.04 0.05 0.04 0.01 0.00 0.00 0.00 0.00 0.00 0.01 0.00 0.00 0.00 0.00 0.00 0.00 0.00 0.00 0.00 0.00 0.00 0.00 0.00 0.00 0.00 0.00 0.00 0.00 0.00 0.00 0.02 0.02 0.05 0.06 0.04 0.05 0.05 0.06 0.08 0.11 0.17 0.22 0.16
0.06 0.05 0.05 0.02 0.00 0.00 0.00 0.00 0.00 0.01 0.01 0.00 0.00 0.00 0.00 0.00 0.00 0.00 0.00 0.00 0.00 0.00 0.00 0.00 0.00 0.00 0.00 0.00 0.00 0.01 0.02 0.03 0.03 0.04 0.02 0.05 0.06 0.05 0.06 0.08 0.09 0.14 0.21

GEFSMA_prec_meanprecacc_018.txt.gz
Total_Precipitation_Accumulation
0.04 0.03 0.02 0.03 0.04 0.10 0.18 0.20 0.20 0.18 0.13 0.10 0.07 0.04 0.03 0.06 0.10 0.12 0.18 0.11 0.09 0.10 0.13 0.15 0.13 0.10 0.08 0.08 0.09 0.09 0.08 0.06 0.06 0.08 0.10 0.08 0.07 0.10 0.15 0.18 0.20 0.20 0.18
0.11 0.11 0.09 0.10 0.09 0.09 0.10 0.15 0.20 0.24 0.20 0.19 0.11 0.07 0.07 0.07 0.08 0.09 0.09 0.16 0.15 0.07 0.08 0.09 0.11 0.11 0.10 0.07 0.07 0.07 0.08 0.06 0.05 0.05 0.07 0.06 0.03 0.03 0.06 0.10 0.14 0.14 0.11
0.34 0.35 0.29 0.19 0.15 0.22 0.26 0.24 0.23 0.25 0.18 0.18 0.17 0.22 0.22 0.17 0.13 0.12 0.10 0.12 0.14 0.07 0.07 0.07 0.10 0.13 0.13 0.12 0.11 0.12 0.10 0.07 0.04 0.03 0.04 0.04 0.03 0.03 0.01 0.03 0.07 0.08 0.07
0.51 0.53 0.37 0.19 0.23 0.41 0.50 0.47 0.42 0.39 0.32 0.31 0.29 0.34 0.34 0.26 0.19 0.14 0.11 0.09 0.08 0.04 0.08 0.16 0.14 0.14 0.18 0.22 0.24 0.26 0.22 0.15 0.08 0.04 0.02 0.03 0.04 0.02 0.01 0.01 0.04 0.05 0.05
0.40 0.45 0.27 0.21 0.38 0.53 0.55 0.55 0.48 0.51 0.43 0.39 0.43 0.39 0.31 0.23 0.16 0.14 0.11 0.09 0.08 0.05 0.04 0.13 0.10 0.13 0.23 0.32 0.37 0.38 0.35 0.29 0.22 0.13 0.06 0.03 0.03 0.02 0.01 0.00 0.02 0.04 0.05
0.22 0.34 0.29 0.25 0.42 0.52 0.48 0.63 0.69 0.70 0.57 0.48 0.48 0.26 0.14 0.12 0.12 0.09 0.07 0.07 0.05 0.04 0.03 0.03 0.11 0.14 0.24 0.33 0.39 0.42 0.46 0.37 0.26 0.20 0.15 0.09 0.06 0.04 0.02 0.01 0.01 0.03 0.04
0.19 0.33 0.32 0.32 0.38 0.42 0.40 0.54 0.65 0.64 0.46 0.60 0.66 0.27 0.10 0.07 0.06 0.04 0.03 0.03 0.03 0.03 0.03 0.03 0.06 0.10 0.24 0.26 0.32 0.40 0.54 0.46 0.27 0.19 0.18 0.16 0.13 0.09 0.05 0.03 0.02 0.01 0.01
0.18 0.24 0.25 0.25 0.30 0.34 0.34 0.38 0.46 0.50 0.42 0.63 0.69 0.53 0.26 0.10 0.06 0.04 0.05 0.05 0.06 0.07 0.08 0.08 0.08 0.11 0.20 0.36 0.33 0.28 0.35 0.45 0.36 0.26 0.26 0.21 0.18 0.15 0.12 0.09 0.04 0.03 0.02
0.15 0.16 0.17 0.21 0.26 0.28 0.30 0.35 0.46 0.56 0.46 0.50 0.67 0.72 0.50 0.25 0.19 0.14 0.16 0.19 0.19 0.19 0.18 0.17 0.18 0.21 0.26 0.34 0.34 0.34 0.30 0.32 0.40 0.47 0.45 0.34 0.24 0.21 0.20 0.20 0.13 0.06 0.04
0.08 0.09 0.12 0.22 0.29 0.35 0.39 0.38 0.42 0.49 0.48 0.43 0.48 0.57 0.60 0.55 0.45 0.25 0.17 0.19 0.22 0.23 0.23 0.22 0.20 0.23 0.27 0.31 0.41 0.49 0.49 0.36 0.32 0.46 0.51 0.49 0.41 0.27 0.19 0.19 0.22 0.18 0.13
0.05 0.05 0.05 0.11 0.22 0.31 0.35 0.35 0.35 0.39 0.43 0.41 0.40 0.42 0.49 0.54 0.51 0.39 0.23 0.16 0.17 0.18 0.19 0.20 0.20 0.19 0.22 0.26 0.36 0.46 0.56 0.45 0.37 0.37 0.41 0.43 0.41 0.32 0.24 0.25 0.37 0.49 0.44
0.05 0.04 0.05 0.08 0.12 0.15 0.18 0.23 0.26 0.28 0.29 0.30 0.32 0.35 0.38 0.40 0.42 0.45 0.37 0.26 0.19 0.20 0.23 0.27 0.29 0.26 0.23 0.24 0.26 0.31 0.28 0.32 0.33 0.29 0.24 0.22 0.25 0.29 0.35 0.46 0.60 0.71 0.73
0.08 0.08 0.09 0.13 0.17 0.18 0.17 0.19 0.22 0.25 0.28 0.27 0.27 0.29 0.31 0.34 0.38 0.41 0.38 0.28 0.22 0.25 0.32 0.40 0.37 0.34 0.27 0.30 0.31 0.22 0.17 0.16 0.16 0.15 0.13 0.14 0.17 0.22 0.29 0.35 0.41 0.47 0.53
0.09 0.13 0.17 0.18 0.17 0.20 0.23 0.28 0.32 0.32 0.32 0.30 0.27 0.28 0.30 0.30 0.33 0.34 0.34 0.29 0.25 0.29 0.38 0.39 0.27 0.23 0.19 0.17 0.16 0.15 0.25 0.18 0.11 0.07 0.04 0.04 0.04 0.05 0.09 0.15 0.21 0.24 0.26
0.07 0.07 0.12 0.20 0.21 0.21 0.26 0.34 0.36 0.37 0.37 0.39 0.37 0.36 0.34 0.30 0.27 0.27 0.27 0.25 0.23 0.27 0.37 0.35 0.24 0.19 0.14 0.09 0.07 0.09 0.22 0.28 0.17 0.06 0.02 0.01 0.01 0.01 0.02 0.03 0.04 0.08 0.11
0.06 0.06 0.09 0.14 0.17 0.18 0.24 0.35 0.42 0.44 0.47 0.49 0.43 0.41 0.42 0.38 0.32 0.29 0.25 0.23 0.22 0.22 0.29 0.24 0.16 0.10 0.08 0.06 0.04 0.04 0.15 0.21 0.14 0.06 0.02 0.01 0.01 0.02 0.02 0.03 0.04 0.03 0.03
0.06 0.06 0.06 0.06 0.06 0.07 0.13 0.25 0.45 0.52 0.56 0.53 0.49 0.48 0.43 0.37 0.28 0.21 0.20 0.20 0.19 0.17 0.16 0.13 0.13 0.13 0.13 0.10 0.07 0.08 0.07 0.09 0.12 0.09 0.03 0.02 0.01 0.02 0.04 0.05 0.05 0.04 0.04
0.08 0.05 0.04 0.03 0.03 0.05 0.10 0.23 0.38 0.49 0.57 0.61 0.56 0.49 0.36 0.25 0.20 0.17 0.18 0.17 0.14 0.10 0.08 0.07 0.08 0.09 0.10 0.09 0.07 0.09 0.08 0.06 0.09 0.12 0.07 0.04 0.03 0.03 0.05 0.05 0.03 0.03 0.06
0.15 0.10 0.06 0.06 0.11 0.16 0.23 0.31 0.35 0.44 0.54 0.56 0.50 0.39 0.27 0.21 0.18 0.17 0.14 0.13 0.08 0.05 0.05 0.04 0.04 0.06 0.06 0.04 0.02 0.04 0.06 0.11 0.13 0.12 0.08 0.07 0.08 0.09 0.11 0.09 0.04 0.04 0.07
0.13 0.10 0.08 0.12 0.18 0.25 0.29 0.30 0.31 0.34 0.36 0.38 0.34 0.25 0.17 0.13 0.10 0.08 0.07 0.07 0.05 0.03 0.01 0.01 0.01 0.01 0.02 0.01 0.01 0.01 0.02 0.07 0.14 0.14 0.14 0.18 0.22 0.21 0.19 0.15 0.09 0.06 0.06
0.05 0.06 0.08 0.13 0.18 0.22 0.25 0.26 0.26 0.23 0.23 0.20 0.15 0.10 0.07 0.05 0.04 0.03 0.02 0.02 0.02 0.02 0.01 0.01 0.00 0.00 0.00 0.00 0.00 0.00 0.02 0.06 0.11 0.14 0.16 0.21 0.25 0.24 0.23 0.20 0.15 0.09 0.05
0.02 0.03 0.05 0.07 0.08 0.12 0.17 0.19 0.16 0.10 0.08 0.07 0.06 0.04 0.03 0.02 0.02 0.02 0.01 0.00 0.00 0.00 0.01 0.01 0.00 0.00 0.00 0.00 0.00 0.01 0.01 0.03 0.04 0.08 0.21 0.26 0.21 0.26 0.46 0.47 0.30 0.12 0.04
0.00 0.02 0.02 0.01 0.03 0.04 0.06 0.06 0.05 0.04 0.02 0.02 0.02 0.02 0.02 0.02 0.01 0.01 0.00 0.00 0.00 0.00 0.00 0.01 0.00 0.00 0.00 0.00 0.00 0.02 0.05 0.05 0.04 0.03 0.04 0.05 0.07 0.17 0.49 0.67 0.40 0.16 0.09
0.02 0.04 0.03 0.01 0.00 0.01 0.02 0.01 0.01 0.01 0.01 0.01 0.01 0.01 0.01 0.01 0.01 0.00 0.00 0.00 0.00 0.00 0.00 0.00 0.00 0.00 0.00 0.00 0.00 0.02 0.07 0.08 0.10 0.05 0.02 0.01 0.03 0.08 0.16 0.27 0.29 0.16 0.09
0.04 0.05 0.04 0.01 0.00 0.00 0.01 0.01 0.01 0.01 0.00 0.00 0.00 0.00 0.00 0.00 0.00 0.00 0.00 0.00 0.00 0.00 0.00 0.00 0.00 0.00 0.00 0.00 0.00 0.00 0.02 0.02 0.05 0.06 0.04 0.05 0.05 0.06 0.08 0.11 0.17 0.22 0.16
0.07 0.05 0.05 0.02 0.00 0.00 0.00 0.00 0.00 0.01 0.02 0.00 0.00 0.00 0.00 0.00 0.00 0.00 0.00 0.00 0.00 0.00 0.00 0.00 0.00 0.00 0.00 0.00 0.00 0.01 0.02 0.03 0.03 0.04 0.02 0.05 0.06 0.05 0.06 0.08 0.09 0.14 0.21

GEFSMA_prec_meanprecacc_024.txt.gz
Total_Precipitation_Accumulation
0.11 0.11 0.09 0.07 0.07 0.14 0.22 0.26 0.29 0.28 0.23 0.20 0.15 0.11 0.09 0.13 0.17 0.19 0.21 0.13 0.11 0.18 0.23 0.26 0.21 0.17 0.15 0.14 0.15 0.16 0.15 0.14 0.12 0.12 0.13 0.11 0.10 0.12 0.19 0.25 0.29 0.30 0.29
0.31 0.34 0.27 0.23 0.19 0.20 0.24 0.33 0.36 0.40 0.32 0.29 0.16 0.14 0.15 0.15 0.15 0.16 0.12 0.19 0.18 0.11 0.13 0.17 0.20 0.19 0.16 0.13 0.12 0.12 0.12 0.10 0.09 0.08 0.10 0.07 0.05 0.05 0.10 0.18 0.23 0.22 0.17
0.68 0.67 0.52 0.34 0.31 0.43 0.50 0.46 0.40 0.46 0.28 0.25 0.22 0.30 0.31 0.25 0.19 0.17 0.14 0.15 0.16 0.08 0.08 0.10 0.15 0.19 0.20 0.19 0.18 0.17 0.14 0.09 0.06 0.04 0.05 0.04 0.04 0.03 0.03 0.07 0.13 0.13 0.10
0.75 0.75 0.51 0.28 0.37 0.63 0.72 0.66 0.59 0.57 0.43 0.41 0.40 0.45 0.43 0.34 0.23 0.18 0.13 0.11 0.10 0.05 0.09 0.16 0.15 0.16 0.22 0.28 0.31 0.33 0.27 0.19 0.10 0.05 0.03 0.03 0.04 0.02 0.01 0.02 0.05 0.07 0.05
0.47 0.52 0.32 0.26 0.45 0.61 0.65 0.64 0.61 0.68 0.58 0.56 0.61 0.52 0.39 0.27 0.19 0.16 0.12 0.10 0.10 0.07 0.05 0.13 0.10 0.13 0.24 0.35 0.43 0.46 0.42 0.34 0.25 0.15 0.07 0.04 0.03 0.02 0.01 0.00 0.02 0.04 0.05
0.24 0.36 0.30 0.27 0.44 0.54 0.51 0.68 0.74 0.79 0.65 0.59 0.61 0.35 0.21 0.17 0.15 0.11 0.08 0.08 0.06 0.04 0.03 0.04 0.12 0.14 0.24 0.34 0.41 0.46 0.52 0.43 0.29 0.22 0.17 0.11 0.08 0.05 0.03 0.01 0.01 0.03 0.04
0.19 0.33 0.32 0.32 0.39 0.43 0.41 0.56 0.67 0.67 0.50 0.68 0.76 0.34 0.14 0.09 0.08 0.06 0.05 0.03 0.03 0.03 0.04 0.04 0.06 0.11 0.25 0.26 0.32 0.41 0.57 0.51 0.32 0.23 0.21 0.18 0.16 0.10 0.06 0.04 0.02 0.02 0.01
0.18 0.24 0.25 0.26 0.30 0.34 0.34 0.38 0.47 0.51 0.43 0.68 0.77 0.61 0.31 0.14 0.08 0.05 0.06 0.06 0.06 0.07 0.08 0.09 0.09 0.12 0.20 0.37 0.33 0.28 0.36 0.49 0.43 0.33 0.30 0.23 0.20 0.17 0.14 0.10 0.05 0.04 0.02
0.15 0.16 0.17 0.21 0.26 0.28 0.31 0.35 0.47 0.57 0.48 0.53 0.72 0.80 0.55 0.27 0.22 0.16 0.17 0.20 0.20 0.20 0.19 0.18 0.18 0.22 0.27 0.35 0.36 0.36 0.32 0.35 0.46 0.57 0.54 0.41 0.28 0.23 0.23 0.24 0.18 0.09 0.05
0.08 0.09 0.12 0.23 0.30 0.35 0.39 0.39 0.43 0.50 0.51 0.46 0.51 0.61 0.65 0.60 0.50 0.27 0.19 0.20 0.24 0.25 0.24 0.23 0.21 0.24 0.29 0.33 0.44 0.53 0.53 0.42 0.39 0.54 0.62 0.60 0.49 0.32 0.23 0.23 0.32 0.28 0.17
0.05 0.05 0.06 0.11 0.22 0.31 0.35 0.36 0.37 0.42 0.46 0.45 0.43 0.45 0.53 0.59 0.57 0.44 0.25 0.18 0.22 0.22 0.22 0.24 0.22 0.22 0.26 0.31 0.43 0.52 0.60 0.51 0.45 0.46 0.52 0.54 0.49 0.39 0.30 0.31 0.49 0.69 0.61
0.05 0.04 0.05 0.08 0.13 0.15 0.19 0.25 0.28 0.31 0.33 0.36 0.37 0.41 0.44 0.45 0.46 0.51 0.42 0.31 0.26 0.28 0.31 0.33 0.35 0.32 0.30 0.33 0.35 0.37 0.33 0.37 0.39 0.37 0.32 0.30 0.32 0.35 0.40 0.54 0.75 0.95 1.01
0.08 0.08 0.09 0.13 0.18 0.19 0.18 0.21 0.25 0.28 0.32 0.33 0.34 0.37 0.40 0.42 0.48 0.52 0.49 0.39 0.33 0.37 0.44 0.48 0.44 0.40 0.33 0.40 0.40 0.28 0.22 0.21 0.21 0.20 0.17 0.18 0.22 0.28 0.36 0.43 0.52 0.63 0.74
0.09 0.13 0.17 0.18 0.18 0.20 0.24 0.30 0.34 0.36 0.36 0.36 0.33 0.37 0.40 0.41 0.45 0.48 0.50 0.47 0.41 0.45 0.54 0.49 0.34 0.30 0.27 0.25 0.22 0.21 0.30 0.23 0.15 0.10 0.07 0.06 0.07 0.08 0.14 0.23 0.33 0.40 0.46
0.07 0.07 0.12 0.20 0.21 0.22 0.27 0.35 0.38 0.39 0.41 0.44 0.44 0.46 0.46 0.44 0.41 0.42 0.46 0.47 0.45 0.46 0.54 0.48 0.35 0.29 0.23 0.17 0.14 0.16 0.27 0.33 0.21 0.09 0.05 0.03 0.03 0.03 0.04 0.06 0.09 0.15 0.23
0.06 0.06 0.09 0.14 0.17 0.19 0.25 0.37 0.44 0.47 0.52 0.55 0.51 0.50 0.54 0.52 0.46 0.45 0.44 0.44 0.44 0.46 0.46 0.38 0.30 0.25 0.21 0.14 0.10 0.10 0.18 0.24 0.17 0.08 0.04 0.03 0.03 0.03 0.04 0.04 0.05 0.06 0.07
0.06 0.06 0.06 0.06 0.06 0.08 0.13 0.27 0.47 0.55 0.61 0.60 0.58 0.57 0.55 0.52 0.45 0.39 0.39 0.39 0.37 0.37 0.31 0.24 0.25 0.25 0.24 0.19 0.14 0.13 0.11 0.13 0.15 0.11 0.05 0.03 0.03 0.03 0.04 0.05 0.05 0.05 0.05
0.08 0.05 0.04 0.03 0.03 0.05 0.11 0.24 0.40 0.52 0.62 0.68 0.64 0.60 0.47 0.38 0.34 0.32 0.34 0.34 0.29 0.27 0.22 0.19 0.17 0.17 0.18 0.17 0.15 0.14 0.11 0.08 0.10 0.14 0.08 0.05 0.04 0.04 0.06 0.05 0.03 0.04 0.06
0.16 0.11 0.07 0.06 0.11 0.17 0.24 0.32 0.37 0.46 0.56 0.60 0.57 0.49 0.38 0.34 0.31 0.31 0.29 0.28 0.23 0.19 0.18 0.14 0.11 0.11 0.11 0.09 0.08 0.08 0.09 0.12 0.14 0.12 0.09 0.08 0.09 0.09 0.11 0.09 0.05 0.04 0.07
0.15 0.11 0.09 0.12 0.18 0.25 0.30 0.31 0.32 0.36 0.38 0.42 0.41 0.34 0.27 0.25 0.24 0.25 0.23 0.19 0.16 0.14 0.11 0.07 0.05 0.05 0.05 0.05 0.04 0.03 0.04 0.08 0.14 0.14 0.14 0.19 0.22 0.21 0.19 0.16 0.09 0.06 0.07
0.08 0.08 0.10 0.14 0.19 0.22 0.25 0.27 0.27 0.24 0.26 0.24 0.20 0.18 0.15 0.16 0.18 0.18 0.14 0.10 0.09 0.08 0.06 0.05 0.04 0.04 0.03 0.03 0.02 0.01 0.02 0.06 0.12 0.14 0.16 0.22 0.26 0.25 0.23 0.20 0.15 0.09 0.05
0.04 0.06 0.08 0.09 0.10 0.12 0.17 0.20 0.17 0.12 0.09 0.09 0.08 0.08 0.08 0.09 0.10 0.12 0.10 0.07 0.05 0.04 0.04 0.04 0.03 0.03 0.02 0.02 0.01 0.01 0.02 0.03 0.04 0.09 0.21 0.26 0.21 0.27 0.46 0.47 0.30 0.12 0.04
0.04 0.07 0.07 0.06 0.05 0.06 0.06 0.06 0.06 0.05 0.04 0.03 0.04 0.04 0.05 0.05 0.05 0.05 0.06 0.03 0.02 0.01 0.02 0.02 0.01 0.01 0.01 0.01 0.00 0.02 0.05 0.05 0.04 0.03 0.05 0.06 0.07 0.18 0.49 0.67 0.40 0.16 0.09
0.07 0.10 0.10 0.07 0.06 0.04 0.02 0.01 0.01 0.02 0.02 0.02 0.01 0.02 0.04 0.05 0.04 0.03 0.03 0.02 0.01 0.00 0.00 0.00 0.00 0.00 0.00 0.00 0.00 0.02 0.07 0.08 0.10 0.05 0.02 0.02 0.04 0.09 0.17 0.27 0.29 0.16 0.09
0.12 0.14 0.14 0.11 0.09 0.06 0.01 0.01 0.01 0.01 0.01 0.01 0.01 0.01 0.01 0.02 0.02 0.02 0.02 0.02 0.01 0.00 0.00 0.00 0.00 0.00 0.00 0.00 0.00 0.00 0.02 0.02 0.05 0.06 0.04 0.06 0.06 0.07 0.09 0.12 0.18 0.22 0.16
0.21 0.22 0.21 0.16 0.12 0.09 0.02 0.00 0.00 0.01 0.02 0.01 0.00 0.00 0.00 0.00 0.00 0.00 0.01 0.01 0.00 0.00 0.00 0.00 0.00 0.00 0.00 0.00 0.00 0.01 0.02 0.03 0.03 0.04 0.02 0.05 0.07 0.07 0.07 0.08 0.09 0.14 0.21

GEFSMA_prec_meanprecacc_030.txt.gz
Total_Precipitation_Accumulation
0.23 0.25 0.23 0.19 0.13 0.21 0.31 0.36 0.35 0.35 0.29 0.23 0.18 0.12 0.10 0.15 0.19 0.21 0.25 0.19 0.14 0.20 0.25 0.28 0.23 0.19 0.18 0.17 0.17 0.18 0.17 0.17 0.15 0.13 0.14 0.12 0.10 0.13 0.19 0.25 0.29 0.30 0.30
0.49 0.50 0.43 0.37 0.30 0.33 0.36 0.47 0.47 0.51 0.41 0.39 0.22 0.17 0.19 0.17 0.17 0.19 0.18 0.32 0.32 0.17 0.16 0.19 0.22 0.22 0.19 0.16 0.14 0.14 0.13 0.12 0.10 0.08 0.10 0.08 0.05 0.06 0.10 0.18 0.23 0.22 0.17
0.85 0.81 0.65 0.46 0.47 0.62 0.69 0.60 0.53 0.64 0.42 0.38 0.34 0.42 0.44 0.34 0.25 0.23 0.20 0.24 0.28 0.17 0.12 0.11 0.17 0.21 0.22 0.21 0.20 0.19 0.15 0.10 0.06 0.05 0.05 0.04 0.04 0.04 0.03 0.07 0.13 0.13 0.10
0.82 0.82 0.58 0.36 0.49 0.74 0.82 0.75 0.71 0.70 0.59 0.59 0.60 0.65 0.64 0.51 0.34 0.27 0.19 0.15 0.14 0.08 0.11 0.19 0.17 0.17 0.24 0.29 0.33 0.35 0.29 0.19 0.10 0.05 0.03 0.03 0.04 0.02 0.01 0.02 0.06 0.07 0.05
0.49 0.55 0.34 0.28 0.47 0.64 0.68 0.67 0.70 0.77 0.66 0.69 0.75 0.69 0.55 0.42 0.30 0.23 0.18 0.13 0.12 0.09 0.06 0.15 0.11 0.15 0.26 0.37 0.44 0.48 0.44 0.35 0.25 0.15 0.07 0.04 0.03 0.02 0.01 0.00 0.02 0.04 0.05
0.24 0.36 0.30 0.27 0.45 0.54 0.51 0.68 0.75 0.82 0.69 0.64 0.66 0.45 0.33 0.22 0.20 0.14 0.11 0.10 0.07 0.05 0.04 0.05 0.14 0.16 0.27 0.37 0.44 0.49 0.55 0.45 0.31 0.23 0.17 0.11 0.08 0.05 0.03 0.01 0.01 0.03 0.04
0.19 0.33 0.32 0.32 0.39 0.43 0.41 0.56 0.67 0.68 0.51 0.71 0.79 0.37 0.17 0.10 0.10 0.08 0.06 0.05 0.05 0.05 0.07 0.07 0.09 0.13 0.29 0.30 0.37 0.46 0.61 0.55 0.35 0.25 0.22 0.19 0.16 0.11 0.06 0.04 0.02 0.02 0.01
0.18 0.24 0.25 0.26 0.30 0.34 0.34 0.39 0.48 0.52 0.44 0.70 0.79 0.64 0.33 0.16 0.10 0.06 0.08 0.08 0.08 0.09 0.11 0.13 0.15 0.20 0.25 0.41 0.40 0.32 0.40 0.53 0.48 0.37 0.33 0.25 0.21 0.18 0.14 0.11 0.05 0.04 0.02
0.15 0.16 0.17 0.21 0.26 0.28 0.31 0.36 0.47 0.58 0.49 0.54 0.74 0.83 0.58 0.29 0.23 0.17 0.19 0.23 0.23 0.25 0.24 0.28 0.34 0.38 0.37 0.42 0.44 0.45 0.37 0.40 0.51 0.62 0.59 0.44 0.30 0.25 0.25 0.26 0.20 0.11 0.06
0.08 0.09 0.12 0.23 0.30 0.35 0.40 0.39 0.44 0.52 0.54 0.47 0.54 0.67 0.70 0.66 0.54 0.30 0.21 0.23 0.28 0.29 0.28 0.28 0.29 0.35 0.41 0.43 0.57 0.66 0.62 0.47 0.42 0.58 0.67 0.65 0.53 0.36 0.27 0.30 0.41 0.37 0.23
0.05 0.05 0.06 0.11 0.23 0.31 0.36 0.37 0.39 0.44 0.50 0.48 0.47 0.51 0.61 0.71 0.67 0.51 0.28 0.21 0.27 0.28 0.30 0.31 0.30 0.32 0.38 0.49 0.63 0.65 0.71 0.60 0.50 0.49 0.55 0.58 0.54 0.46 0.38 0.43 0.66 0.89 0.80
0.05 0.04 0.05 0.08 0.13 0.15 0.19 0.26 0.30 0.34 0.38 0.41 0.44 0.47 0.51 0.53 0.57 0.64 0.51 0.39 0.35 0.36 0.44 0.48 0.49 0.47 0.45 0.52 0.52 0.55 0.47 0.48 0.44 0.40 0.34 0.33 0.36 0.40 0.48 0.65 0.92 1.16 1.26
0.08 0.08 0.09 0.13 0.18 0.19 0.19 0.22 0.27 0.30 0.35 0.39 0.41 0.44 0.48 0.51 0.59 0.67 0.63 0.52 0.48 0.54 0.63 0.66 0.58 0.56 0.49 0.58 0.54 0.41 0.30 0.27 0.24 0.22 0.19 0.20 0.25 0.33 0.42 0.50 0.61 0.76 0.90
0.10 0.13 0.18 0.19 0.18 0.21 0.24 0.31 0.36 0.38 0.40 0.41 0.39 0.47 0.51 0.51 0.59 0.65 0.68 0.67 0.61 0.67 0.77 0.66 0.45 0.41 0.41 0.40 0.32 0.27 0.35 0.26 0.17 0.12 0.09 0.08 0.09 0.11 0.17 0.28 0.40 0.49 0.57
0.09 0.09 0.14 0.22 0.22 0.23 0.28 0.36 0.40 0.41 0.44 0.49 0.51 0.55 0.58 0.57 0.58 0.61 0.68 0.71 0.69 0.68 0.75 0.64 0.45 0.38 0.33 0.27 0.23 0.28 0.35 0.35 0.22 0.10 0.06 0.05 0.06 0.07 0.08 0.10 0.14 0.21 0.31
0.13 0.12 0.14 0.19 0.20 0.21 0.27 0.38 0.46 0.49 0.55 0.61 0.58 0.58 0.64 0.64 0.62 0.64 0.67 0.69 0.73 0.77 0.72 0.54 0.41 0.33 0.30 0.23 0.19 0.21 0.23 0.26 0.18 0.10 0.05 0.04 0.04 0.05 0.07 0.08 0.09 0.10 0.12
0.15 0.13 0.13 0.13 0.11 0.11 0.16 0.29 0.49 0.58 0.65 0.66 0.65 0.66 0.65 0.66 0.62 0.56 0.60 0.64 0.67 0.70 0.57 0.40 0.38 0.35 0.32 0.27 0.23 0.20 0.15 0.15 0.16 0.13 0.06 0.05 0.04 0.04 0.06 0.07 0.07 0.07 0.08
0.16 0.14 0.12 0.11 0.09 0.10 0.15 0.26 0.41 0.54 0.65 0.73 0.71 0.68 0.57 0.51 0.51 0.50 0.53 0.56 0.55 0.56 0.45 0.33 0.28 0.26 0.27 0.27 0.25 0.20 0.14 0.10 0.12 0.16 0.09 0.06 0.05 0.06 0.08 0.07 0.05 0.05 0.07
0.21 0.18 0.15 0.14 0.18 0.23 0.29 0.35 0.39 0.48 0.58 0.63 0.61 0.54 0.45 0.43 0.43 0.45 0.44 0.45 0.42 0.40 0.35 0.25 0.20 0.19 0.21 0.19 0.17 0.16 0.14 0.15 0.15 0.14 0.10 0.09 0.09 0.10 0.12 0.10 0.06 0.06 0.08
0.19 0.17 0.17 0.20 0.26 0.33 0.36 0.35 0.35 0.39 0.41 0.45 0.44 0.38 0.33 0.31 0.31 0.32 0.32 0.29 0.28 0.26 0.22 0.17 0.13 0.12 0.13 0.15 0.12 0.10 0.11 0.13 0.17 0.15 0.15 0.19 0.23 0.21 0.19 0.16 0.10 0.07 0.07
0.10 0.13 0.17 0.21 0.26 0.30 0.30 0.32 0.32 0.28 0.30 0.29 0.24 0.22 0.18 0.18 0.21 0.22 0.20 0.17 0.17 0.18 0.16 0.15 0.13 0.12 0.12 0.14 0.13 0.10 0.10 0.13 0.16 0.17 0.19 0.25 0.28 0.26 0.23 0.20 0.15 0.09 0.05
0.06 0.10 0.13 0.16 0.18 0.19 0.23 0.23 0.21 0.17 0.16 0.17 0.16 0.13 0.10 0.10 0.11 0.14 0.14 0.12 0.12 0.13 0.15 0.16 0.14 0.14 0.14 0.14 0.12 0.10 0.09 0.10 0.10 0.17 0.31 0.33 0.26 0.28 0.46 0.47 0.30 0.12 0.04
0.06 0.10 0.12 0.12 0.14 0.16 0.12 0.09 0.08 0.09 0.11 0.13 0.13 0.12 0.08 0.06 0.06 0.06 0.07 0.06 0.07 0.08 0.11 0.13 0.13 0.12 0.10 0.10 0.08 0.09 0.13 0.13 0.10 0.08 0.11 0.11 0.09 0.18 0.49 0.67 0.40 0.16 0.09
0.09 0.12 0.13 0.13 0.15 0.16 0.11 0.07 0.05 0.05 0.09 0.10 0.09 0.09 0.08 0.07 0.06 0.04 0.04 0.05 0.05 0.05 0.07 0.09 0.09 0.08 0.06 0.05 0.05 0.07 0.11 0.12 0.13 0.08 0.05 0.06 0.07 0.11 0.17 0.27 0.29 0.16 0.09
0.16 0.16 0.16 0.16 0.17 0.18 0.13 0.08 0.06 0.07 0.09 0.09 0.07 0.06 0.06 0.05 0.03 0.03 0.04 0.04 0.04 0.04 0.06 0.07 0.06 0.05 0.03 0.02 0.01 0.02 0.03 0.04 0.06 0.07 0.05 0.08 0.09 0.10 0.11 0.12 0.18 0.22 0.16
0.25 0.25 0.23 0.20 0.21 0.24 0.19 0.12 0.10 0.11 0.13 0.09 0.07 0.04 0.03 0.03 0.01 0.01 0.04 0.03 0.02 0.02 0.02 0.03 0.02 0.02 0.01 0.00 0.00 0.01 0.03 0.03 0.03 0.04 0.03 0.06 0.09 0.09 0.10 0.10 0.09 0.14 0.21

GEFSMA_prec_meanprecacc_036.txt.gz
Total_Precipitation_Accumulation
0.30 0.32 0.31 0.25 0.18 0.27 0.40 0.47 0.47 0.48 0.43 0.37 0.32 0.25 0.25 0.32 0.40 0.46 0.45 0.44 0.52 0.56 0.55 0.55 0.44 0.32 0.27 0.21 0.19 0.19 0.17 0.17 0.15 0.13 0.14 0.12 0.10 0.13 0.19 0.25 0.29 0.30 0.30
0.56 0.58 0.50 0.43 0.34 0.38 0.43 0.55 0.56 0.61 0.50 0.49 0.31 0.29 0.32 0.31 0.38 0.43 0.43 0.61 0.70 0.56 0.46 0.45 0.42 0.35 0.28 0.22 0.18 0.16 0.14 0.12 0.10 0.08 0.10 0.08 0.05 0.06 0.10 0.18 0.23 0.22 0.17
0.91 0.86 0.69 0.49 0.49 0.65 0.73 0.63 0.56 0.68 0.46 0.42 0.38 0.46 0.49 0.40 0.34 0.35 0.36 0.44 0.55 0.48 0.38 0.32 0.36 0.36 0.34 0.31 0.27 0.25 0.19 0.11 0.07 0.05 0.05 0.05 0.04 0.04 0.03 0.08 0.13 0.13 0.10
0.84 0.84 0.60 0.37 0.50 0.75 0.83 0.76 0.71 0.71 0.60 0.61 0.61 0.65 0.64 0.52 0.36 0.30 0.24 0.26 0.29 0.26 0.31 0.38 0.35 0.32 0.38 0.44 0.46 0.47 0.37 0.24 0.12 0.06 0.04 0.04 0.04 0.03 0.01 0.02 0.06 0.07 0.05
0.49 0.55 0.34 0.28 0.47 0.64 0.68 0.67 0.70 0.77 0.66 0.69 0.76 0.70 0.55 0.42 0.31 0.24 0.21 0.18 0.19 0.19 0.18 0.28 0.25 0.29 0.43 0.56 0.64 0.66 0.59 0.46 0.32 0.19 0.10 0.05 0.03 0.02 0.01 0.00 0.02 0.04 0.05
0.25 0.36 0.30 0.27 0.45 0.54 0.51 0.68 0.75 0.82 0.69 0.64 0.66 0.45 0.33 0.22 0.20 0.14 0.12 0.11 0.11 0.11 0.12 0.15 0.26 0.27 0.41 0.55 0.65 0.73 0.79 0.64 0.43 0.31 0.23 0.15 0.10 0.06 0.03 0.01 0.01 0.03 0.04
0.19 0.33 0.32 0.32 0.39 0.43 0.41 0.56 0.67 0.68 0.51 0.71 0.79 0.37 0.17 0.10 0.10 0.08 0.07 0.07 0.07 0.10 0.15 0.18 0.23 0.29 0.46 0.54 0.66 0.74 0.90 0.83 0.58 0.41 0.34 0.28 0.23 0.15 0.08 0.04 0.02 0.02 0.01
0.19 0.24 0.25 0.26 0.30 0.34 0.34 0.39 0.48 0.52 0.44 0.70 0.79 0.64 0.33 0.16 0.10 0.06 0.09 0.10 0.12 0.14 0.18 0.23 0.33 0.43 0.54 0.73 0.74 0.63 0.68 0.83 0.76 0.61 0.54 0.41 0.32 0.24 0.18 0.12 0.06 0.04 0.02
0.17 0.17 0.17 0.21 0.26 0.28 0.31 0.36 0.47 0.58 0.49 0.54 0.74 0.84 0.58 0.29 0.24 0.17 0.19 0.24 0.26 0.31 0.34 0.42 0.52 0.59 0.66 0.77 0.77 0.74 0.62 0.68 0.81 0.91 0.82 0.61 0.40 0.34 0.32 0.31 0.24 0.13 0.08
0.11 0.10 0.13 0.23 0.30 0.35 0.40 0.39 0.44 0.52 0.54 0.47 0.54 0.68 0.71 0.67 0.55 0.30 0.21 0.23 0.30 0.34 0.38 0.44 0.49 0.59 0.63 0.75 0.98 1.04 0.93 0.77 0.69 0.81 0.87 0.82 0.66 0.46 0.36 0.38 0.50 0.46 0.29
0.10 0.09 0.08 0.13 0.24 0.32 0.36 0.37 0.39 0.44 0.50 0.49 0.47 0.51 0.61 0.71 0.68 0.52 0.29 0.21 0.28 0.31 0.39 0.46 0.52 0.57 0.61 0.74 1.01 1.10 1.12 0.89 0.74 0.69 0.73 0.72 0.65 0.55 0.46 0.51 0.77 1.01 0.91
0.13 0.11 0.09 0.11 0.14 0.17 0.20 0.26 0.30 0.34 0.38 0.41 0.44 0.47 0.51 0.54 0.58 0.66 0.52 0.40 0.36 0.37 0.47 0.55 0.65 0.71 0.71 0.73 0.73 0.80 0.78 0.78 0.70 0.60 0.51 0.45 0.45 0.49 0.54 0.72 0.99 1.26 1.39
0.18 0.18 0.16 0.18 0.21 0.22 0.21 0.23 0.27 0.31 0.35 0.39 0.41 0.44 0.48 0.51 0.59 0.68 0.64 0.52 0.49 0.56 0.66 0.71 0.67 0.70 0.68 0.78 0.71 0.57 0.46 0.46 0.41 0.36 0.30 0.29 0.32 0.38 0.46 0.54 0.67 0.82 0.98
0.22 0.26 0.29 0.29 0.26 0.27 0.28 0.33 0.37 0.39 0.40 0.41 0.39 0.47 0.51 0.51 0.60 0.66 0.69 0.69 0.62 0.68 0.81 0.71 0.52 0.50 0.51 0.53 0.47 0.41 0.46 0.35 0.26 0.20 0.15 0.14 0.14 0.16 0.22 0.32 0.44 0.54 0.63
0.20 0.21 0.26 0.35 0.33 0.31 0.34 0.40 0.42 0.43 0.45 0.49 0.51 0.55 0.58 0.57 0.58 0.62 0.70 0.74 0.71 0.69 0.78 0.68 0.50 0.45 0.43 0.37 0.33 0.35 0.41 0.41 0.26 0.14 0.09 0.07 0.08 0.10 0.11 0.12 0.17 0.24 0.34
0.19 0.18 0.21 0.27 0.28 0.28 0.34 0.44 0.49 0.51 0.56 0.61 0.58 0.58 0.64 0.64 0.62 0.64 0.68 0.72 0.76 0.80 0.75 0.57 0.45 0.40 0.40 0.31 0.27 0.26 0.26 0.30 0.20 0.12 0.07 0.05 0.05 0.06 0.07 0.09 0.11 0.12 0.15
0.16 0.15 0.15 0.16 0.16 0.17 0.22 0.35 0.53 0.61 0.67 0.67 0.65 0.67 0.65 0.66 0.62 0.57 0.61 0.65 0.71 0.76 0.61 0.43 0.42 0.43 0.44 0.36 0.28 0.24 0.18 0.17 0.18 0.14 0.07 0.06 0.05 0.04 0.06 0.08 0.08 0.08 0.09
0.16 0.14 0.12 0.11 0.10 0.11 0.18 0.31 0.45 0.57 0.67 0.75 0.72 0.68 0.57 0.51 0.51 0.50 0.54 0.58 0.59 0.63 0.51 0.38 0.34 0.35 0.37 0.35 0.30 0.24 0.17 0.12 0.14 0.17 0.10 0.06 0.06 0.06 0.08 0.07 0.05 0.06 0.08
0.21 0.18 0.15 0.14 0.18 0.24 0.30 0.38 0.42 0.51 0.62 0.65 0.63 0.55 0.46 0.43 0.43 0.45 0.45 0.46 0.45 0.44 0.41 0.32 0.26 0.27 0.30 0.28 0.24 0.21 0.18 0.17 0.17 0.15 0.11 0.09 0.09 0.10 0.13 0.11 0.06 0.06 0.09
0.19 0.17 0.17 0.20 0.26 0.33 0.37 0.37 0.38 0.43 0.46 0.49 0.47 0.40 0.34 0.32 0.32 0.32 0.32 0.30 0.30 0.30 0.26 0.21 0.18 0.19 0.22 0.26 0.20 0.17 0.17 0.17 0.18 0.16 0.15 0.19 0.23 0.21 0.20 0.16 0.10 0.08 0.08
0.10 0.13 0.17 0.21 0.26 0.30 0.30 0.33 0.35 0.32 0.36 0.34 0.29 0.26 0.21 0.19 0.21 0.22 0.20 0.18 0.18 0.20 0.19 0.18 0.17 0.17 0.19 0.24 0.21 0.16 0.15 0.18 0.19 0.18 0.20 0.25 0.28 0.26 0.23 0.20 0.15 0.09 0.06
0.06 0.10 0.13 0.16 0.18 0.19 0.23 0.24 0.22 0.20 0.21 0.24 0.23 0.19 0.13 0.12 0.12 0.14 0.14 0.13 0.12 0.14 0.16 0.18 0.18 0.18 0.19 0.19 0.18 0.15 0.13 0.14 0.14 0.19 0.31 0.34 0.26 0.28 0.46 0.47 0.30 0.12 0.04
0.07 0.10 0.12 0.13 0.14 0.16 0.12 0.09 0.08 0.11 0.15 0.20 0.22 0.20 0.13 0.08 0.07 0.07 0.08 0.06 0.07 0.09 0.12 0.16 0.16 0.16 0.15 0.14 0.13 0.14 0.17 0.17 0.13 0.10 0.13 0.12 0.09 0.18 0.49 0.67 0.40 0.16 0.09
0.09 0.13 0.14 0.13 0.15 0.16 0.11 0.07 0.05 0.07 0.12 0.17 0.19 0.18 0.14 0.09 0.08 0.05 0.05 0.05 0.05 0.06 0.09 0.12 0.12 0.12 0.12 0.11 0.11 0.13 0.16 0.16 0.17 0.11 0.07 0.07 0.07 0.11 0.17 0.27 0.29 0.16 0.09
0.16 0.17 0.17 0.16 0.18 0.19 0.13 0.08 0.07 0.10 0.14 0.17 0.19 0.18 0.14 0.09 0.06 0.04 0.04 0.04 0.04 0.06 0.09 0.12 0.12 0.11 0.10 0.08 0.07 0.06 0.07 0.07 0.10 0.10 0.06 0.09 0.09 0.10 0.11 0.12 0.18 0.22 0.16
0.26 0.26 0.24 0.21 0.21 0.24 0.20 0.13 0.11 0.14 0.19 0.21 0.22 0.20 0.16 0.11 0.05 0.03 0.05 0.04 0.03 0.03 0.05 0.06 0.07 0.08 0.07 0.07 0.06 0.04 0.05 0.05 0.05 0.05 0.04 0.06 0.10 0.09 0.10 0.10 0.09 0.14 0.21

GEFSMA_prec_meanprecacc_042.txt.gz
Total_Precipitation_Accumulation
0.39 0.41 0.38 0.32 0.26 0.36 0.50 0.60 0.60 0.61 0.57 0.53 0.51 0.45 0.42 0.42 0.47 0.51 0.48 0.50 0.64 0.70 0.72 0.72 0.63 0.53 0.47 0.40 0.36 0.33 0.31 0.29 0.24 0.19 0.18 0.16 0.15 0.19 0.24 0.30 0.32 0.32 0.32
0.72 0.77 0.67 0.56 0.44 0.47 0.52 0.65 0.65 0.71 0.60 0.60 0.42 0.40 0.41 0.38 0.43 0.47 0.47 0.65 0.76 0.64 0.57 0.58 0.60 0.54 0.46 0.39 0.34 0.31 0.28 0.25 0.21 0.15 0.15 0.12 0.11 0.13 0.20 0.27 0.31 0.27 0.20
1.11 1.07 0.86 0.62 0.58 0.73 0.79 0.68 0.61 0.73 0.50 0.45 0.40 0.49 0.51 0.42 0.36 0.36 0.37 0.46 0.57 0.52 0.43 0.40 0.46 0.48 0.50 0.49 0.45 0.43 0.35 0.26 0.20 0.16 0.13 0.10 0.09 0.10 0.12 0.18 0.26 0.24 0.18
1.07 1.05 0.75 0.46 0.55 0.79 0.86 0.78 0.73 0.73 0.61 0.62 0.62 0.66 0.65 0.52 0.36 0.31 0.25 0.26 0.31 0.27 0.33 0.43 0.41 0.39 0.50 0.62 0.69 0.74 0.62 0.45 0.28 0.20 0.14 0.12 0.10 0.07 0.08 0.11 0.17 0.19 0.16
0.72 0.73 0.46 0.35 0.51 0.66 0.69 0.68 0.71 0.77 0.67 0.69 0.76 0.70 0.55 0.42 0.31 0.25 0.21 0.18 0.20 0.20 0.19 0.30 0.29 0.34 0.51 0.71 0.86 0.93 0.88 0.72 0.53 0.39 0.28 0.19 0.15 0.10 0.08 0.08 0.10 0.14 0.15
0.49 0.54 0.41 0.32 0.47 0.56 0.52 0.68 0.75 0.82 0.69 0.64 0.66 0.45 0.33 0.22 0.20 0.14 0.12 0.11 0.11 0.11 0.12 0.17 0.28 0.29 0.47 0.64 0.79 0.93 1.07 0.96 0.69 0.53 0.44 0.35 0.28 0.18 0.11 0.08 0.08 0.10 0.11
0.47 0.53 0.44 0.38 0.41 0.44 0.41 0.56 0.67 0.68 0.51 0.71 0.79 0.37 0.17 0.10 0.10 0.08 0.07 0.07 0.07 0.10 0.15 0.19 0.24 0.30 0.48 0.58 0.72 0.84 1.09 1.09 0.85 0.65 0.56 0.48 0.43 0.31 0.19 0.13 0.09 0.08 0.07
0.41 0.43 0.37 0.30 0.31 0.35 0.35 0.39 0.48 0.52 0.44 0.70 0.79 0.64 0.33 0.16 0.10 0.06 0.09 0.10 0.12 0.14 0.19 0.23 0.33 0.44 0.55 0.75 0.76 0.68 0.81 1.02 1.01 0.87 0.77 0.60 0.50 0.39 0.29 0.22 0.14 0.09 0.06
0.33 0.30 0.26 0.25 0.28 0.29 0.31 0.36 0.47 0.58 0.49 0.54 0.74 0.84 0.58 0.29 0.24 0.17 0.19 0.24 0.26 0.31 0.34 0.42 0.52 0.59 0.67 0.78 0.79 0.78 0.69 0.78 1.00 1.15 1.08 0.83 0.57 0.47 0.45 0.43 0.35 0.21 0.14
0.27 0.24 0.24 0.31 0.34 0.37 0.41 0.40 0.44 0.52 0.54 0.47 0.54 0.68 0.71 0.67 0.55 0.30 0.21 0.23 0.30 0.34 0.38 0.44 0.49 0.60 0.64 0.77 1.00 1.06 0.95 0.82 0.77 0.96 1.08 1.06 0.86 0.61 0.49 0.49 0.62 0.58 0.38
0.30 0.27 0.23 0.25 0.31 0.37 0.39 0.39 0.39 0.45 0.50 0.49 0.47 0.51 0.61 0.71 0.68 0.52 0.29 0.21 0.28 0.31 0.39 0.46 0.52 0.57 0.61 0.76 1.02 1.11 1.14 0.92 0.80 0.75 0.83 0.88 0.83 0.70 0.60 0.64 0.91 1.17 1.05
0.32 0.30 0.27 0.27 0.27 0.27 0.28 0.31 0.33 0.35 0.38 0.41 0.44 0.47 0.51 0.54 0.58 0.66 0.52 0.40 0.36 0.37 0.47 0.56 0.65 0.71 0.72 0.74 0.74 0.82 0.80 0.80 0.74 0.66 0.58 0.56 0.60 0.66 0.70 0.87 1.16 1.42 1.54
0.28 0.30 0.30 0.33 0.36 0.35 0.32 0.32 0.34 0.34 0.38 0.40 0.41 0.44 0.48 0.51 0.59 0.68 0.64 0.52 0.49 0.56 0.66 0.71 0.67 0.70 0.69 0.80 0.73 0.60 0.48 0.48 0.44 0.41 0.38 0.40 0.45 0.52 0.59 0.65 0.77 0.93 1.08
0.27 0.32 0.36 0.37 0.37 0.41 0.42 0.45 0.47 0.47 0.45 0.44 0.40 0.48 0.52 0.51 0.60 0.66 0.69 0.69 0.62 0.68 0.81 0.71 0.52 0.50 0.52 0.54 0.49 0.45 0.49 0.38 0.29 0.23 0.20 0.20 0.21 0.24 0.30 0.41 0.52 0.61 0.69
0.22 0.23 0.30 0.40 0.40 0.40 0.45 0.51 0.52 0.53 0.54 0.55 0.55 0.58 0.60 0.58 0.58 0.62 0.70 0.74 0.72 0.70 0.78 0.69 0.51 0.46 0.43 0.38 0.35 0.37 0.42 0.43 0.29 0.16 0.11 0.10 0.11 0.13 0.15 0.17 0.22 0.29 0.39
0.19 0.19 0.23 0.30 0.33 0.35 0.42 0.52 0.57 0.60 0.65 0.68 0.63 0.61 0.66 0.66 0.63 0.65 0.68 0.72 0.77 0.81 0.76 0.57 0.46 0.41 0.40 0.32 0.29 0.27 0.28 0.32 0.22 0.14 0.09 0.07 0.06 0.07 0.09 0.12 0.14 0.15 0.17
0.16 0.15 0.16 0.17 0.18 0.21 0.28 0.42 0.61 0.69 0.75 0.74 0.70 0.70 0.68 0.68 0.64 0.58 0.61 0.65 0.71 0.76 0.61 0.43 0.43 0.45 0.45 0.37 0.30 0.25 0.19 0.19 0.19 0.16 0.09 0.07 0.05 0.06 0.07 0.10 0.10 0.10 0.11
0.16 0.14 0.12 0.11 0.11 0.13 0.21 0.36 0.52 0.65 0.76 0.83 0.78 0.73 0.61 0.54 0.53 0.51 0.55 0.58 0.59 0.63 0.52 0.39 0.35 0.38 0.39 0.37 0.32 0.26 0.18 0.13 0.15 0.20 0.12 0.08 0.06 0.07 0.09 0.08 0.06 0.06 0.09
0.21 0.18 0.15 0.14 0.18 0.24 0.31 0.40 0.46 0.57 0.70 0.74 0.71 0.61 0.51 0.48 0.47 0.47 0.46 0.47 0.46 0.45 0.42 0.33 0.28 0.30 0.34 0.32 0.28 0.24 0.20 0.18 0.18 0.17 0.12 0.10 0.10 0.11 0.13 0.11 0.07 0.06 0.09
0.19 0.17 0.17 0.20 0.26 0.33 0.37 0.37 0.39 0.45 0.50 0.55 0.56 0.49 0.41 0.37 0.36 0.36 0.35 0.32 0.31 0.30 0.27 0.23 0.20 0.23 0.28 0.31 0.25 0.21 0.20 0.19 0.19 0.17 0.16 0.20 0.23 0.22 0.20 0.16 0.10 0.08 0.08
0.10 0.13 0.17 0.21 0.26 0.30 0.30 0.33 0.35 0.33 0.37 0.37 0.34 0.34 0.30 0.27 0.27 0.27 0.24 0.20 0.19 0.20 0.20 0.20 0.19 0.21 0.25 0.31 0.28 0.20 0.18 0.20 0.21 0.19 0.20 0.25 0.28 0.26 0.23 0.20 0.16 0.10 0.06
0.06 0.10 0.13 0.16 0.18 0.19 0.23 0.24 0.22 0.20 0.21 0.24 0.25 0.23 0.19 0.20 0.19 0.19 0.18 0.15 0.14 0.14 0.17 0.19 0.20 0.21 0.22 0.23 0.22 0.19 0.17 0.16 0.16 0.21 0.32 0.34 0.26 0.28 0.46 0.47 0.30 0.12 0.04
0.07 0.10 0.12 0.13 0.14 0.16 0.12 0.09 0.08 0.11 0.15 0.20 0.22 0.22 0.18 0.14 0.13 0.13 0.11 0.09 0.09 0.10 0.13 0.17 0.17 0.17 0.17 0.16 0.17 0.18 0.21 0.20 0.16 0.13 0.14 0.13 0.10 0.18 0.49 0.67 0.41 0.16 0.09
0.10 0.13 0.14 0.13 0.15 0.16 0.11 0.07 0.05 0.07 0.12 0.17 0.19 0.19 0.17 0.14 0.13 0.11 0.09 0.07 0.06 0.07 0.10 0.13 0.14 0.14 0.14 0.13 0.15 0.17 0.21 0.20 0.20 0.13 0.08 0.08 0.08 0.11 0.17 0.27 0.29 0.16 0.09
0.20 0.19 0.18 0.17 0.18 0.19 0.13 0.09 0.07 0.10 0.14 0.17 0.19 0.19 0.17 0.13 0.11 0.10 0.10 0.08 0.06 0.07 0.11 0.13 0.14 0.15 0.14 0.13 0.11 0.11 0.11 0.10 0.12 0.11 0.06 0.09 0.10 0.10 0.11 0.12 0.18 0.22 0.16
0.33 0.31 0.27 0.22 0.22 0.24 0.20 0.13 0.11 0.14 0.19 0.21 0.23 0.22 0.20 0.16 0.12 0.09 0.10 0.08 0.06 0.05 0.06 0.08 0.10 0.13 0.13 0.14 0.13 0.09 0.08 0.07 0.07 0.06 0.04 0.07 0.10 0.09 0.10 0.10 0.09 0.14 0.21